DW4394 Weather Reports


Display with metric or nautical units.
time (UTC)temp
F
wind
direction
speed
MPH
gust
MPH
rain 1hr
in
rain 24hr
in
rain mn
in
humidity
%
barometer
mb
20260901103057 77 167 3.0 5.0 0.00 0.00 0.00 26 1007.5
20260901101604 77 150 3.0 6.0 0.00 0.00 0.00 26 1007.5
20260901100100 78 130 3.0 4.0 0.00 0.00 0.00 27 1007.2
20260901094551 78 145 2.0 5.0 0.00 0.00 0.00 25 1007.1
20260901093051 79 159 3.0 5.0 0.00 0.00 0.00 25 1006.9
20260901091551 79 192 2.0 4.0 0.00 0.00 0.00 25 1006.8
20260901090055 79 142 2.0 5.0 0.00 0.00 0.00 24 1006.7
20260901084609 79 184 0.0 5.0 0.00 0.00 0.00 24 1006.8
20260901083051 80 211 2.0 5.0 0.00 0.00 0.00 24 1006.8
20260901081551 80 190 2.0 5.0 0.00 0.00 0.00 24 1006.6
20260901080107 81 145 2.0 8.0 0.00 0.00 0.00 23 1006.6
20260901074612 81 192 3.0 10.0 0.00 0.00 0.00 22 1006.5
20260901073054 82 184 4.0 8.0 0.00 0.00 0.00 26 1006.3
20260901071554 82 133 4.0 8.0 0.00 0.00 0.00 26 1006.2
20260901070055 83 178 4.0 10.0 0.00 0.00 0.00 22 1006.1
20260901064554 83 184 3.0 8.0 0.00 0.00 0.00 31 1006.0
20260901063102 83 228 5.0 9.0 0.00 0.00 0.00 35 1005.9
20260901061555 84 242 5.0 10.0 0.00 0.00 0.00 35 1005.8
20260901060054 84 202 4.0 9.0 0.00 0.00 0.00 34 1005.7
20260901054556 85 176 7.0 13.0 0.00 0.00 0.00 32 1005.6
20260901053102 86 169 8.0 19.0 0.00 0.00 0.00 32 1005.5
20260901051559 86 153 7.0 19.0 0.00 0.00 0.00 32 1005.4
20260901050055 86 175 9.0 19.0 0.00 0.00 0.00 32 1005.0
20260901044559 86 166 10.0 23.0 0.00 0.00 0.00 32 1005.0
20260901043055 87 178 10.0 19.0 0.00 0.00 0.00 32 1005.0
20260901041617 87 126 11.0 19.0 0.00 0.00 0.00 32 1004.7
20260901040132 87 212 12.0 23.0 0.00 0.00 0.00 33 1004.7
20260901034555 87 159 12.0 31.0 0.00 0.00 0.00 33 1004.5
20260901033054 88 162 12.0 21.0 0.00 0.00 0.00 37 1004.3
20260901031557 88 107 8.0 22.0 0.00 0.00 0.00 36 1004.1
20260901030100 89 173 12.0 20.0 0.00 0.00 0.00 34 1003.9
20260901024556 89 123 11.0 21.0 0.00 0.00 0.00 34 1003.8
20260901023101 90 168 9.0 21.0 0.00 0.00 0.00 32 1003.5
20260901021554 91 173 12.0 23.0 0.00 0.00 0.00 32 1003.4
20260901020056 93 175 7.0 20.0 0.00 0.00 0.00 27 1003.3
20260901014555 94 221 4.0 14.0 0.00 0.00 0.00 15 1003.2
20260901013059 95 160 5.0 12.0 0.00 0.00 0.00 15 1003.0
20260901011555 96 222 5.0 14.0 0.00 0.00 0.00 15 1003.0
20260901010113 96 205 6.0 13.0 0.00 0.00 0.00 15 1003.0
20260901010005 96 231 5.0 13.0 0.00 0.00 0.00 15 1003.0
20260901004553 97 212 5.0 16.0 0.00 0.00 0.00 14 1003.0
20260901003053 97 221 8.0 20.0 0.00 0.00 0.00 14 1003.1
20260901001553 98 212 7.0 15.0 0.00 0.00 0.00 14 1003.1
20260901000053 99 236 7.0 15.0 0.00 0.00 0.00 13 1003.1
20260831234554 99 178 5.0 15.0 0.00 0.00 0.00 13 1003.1
20260831233053 99 186 9.0 15.0 0.00 0.00 0.00 13 1003.1
20260831231553 99 155 8.0 16.0 0.00 0.00 0.00 13 1003.2
20260831230109 99 182 7.0 16.0 0.00 0.00 0.00 14 1003.3
20260831224555 99 211 11.0 20.0 0.00 0.00 0.00 14 1003.5
20260831223107 100 160 8.0 19.0 0.00 0.00 0.00 14 1003.5
20260831221558 99 221 9.0 17.0 0.00 0.00 0.00 17 1003.4
20260831220054 97 123 9.0 19.0 0.00 0.00 0.00 19 1003.8
20260831214602 97 161 10.0 18.0 0.00 0.00 0.00 19 1004.0
20260831213053 96 166 10.0 24.0 0.00 0.00 0.00 19 1004.2
20260831211553 96 135 11.0 20.0 0.00 0.00 0.00 20 1004.5
20260831210053 96 205 10.0 16.0 0.00 0.00 0.00 20 1004.8
20260831204554 97 262 7.0 16.0 0.00 0.00 0.00 20 1004.8
20260831203055 95 184 4.0 11.0 0.00 0.00 0.00 22 1005.1
20260831201553 96 140 6.0 14.0 0.00 0.00 0.00 21 1005.4
20260831200105 95 194 9.0 14.0 0.00 0.00 0.00 22 1005.6
20260831194632 95 122 8.0 13.0 0.00 0.00 0.00 23 1006.0
20260831193059 94 119 8.0 16.0 0.00 0.00 0.00 25 1006.0
20260831191553 93 189 3.0 6.0 0.00 0.00 0.00 23 1006.2
20260831190100 93 355 2.0 4.0 0.00 0.00 0.00 22 1006.5
20260831184554 94 205 4.0 8.0 0.00 0.00 0.00 21 1006.6
20260831183104 93 215 3.0 7.0 0.00 0.00 0.00 24 1006.6
20260831181554 93 186 5.0 15.0 0.00 0.00 0.00 23 1006.5
20260831180110 94 186 4.0 14.0 0.00 0.00 0.00 27 1006.7
20260831174553 93 113 5.0 9.0 0.00 0.00 0.00 29 1006.8
20260831173053 93 136 5.0 10.0 0.00 0.00 0.00 29 1006.9
20260831171554 92 217 4.0 10.0 0.00 0.00 0.00 30 1007.0
20260831170053 91 185 3.0 8.0 0.00 0.00 0.00 31 1007.0
20260831164553 90 211 4.0 6.0 0.00 0.00 0.00 31 1006.9
20260831163053 89 5 1.0 3.0 0.00 0.00 0.00 30 1006.9
20260831161553 89 207 3.0 7.0 0.00 0.00 0.00 31 1006.9
20260831160053 88 265 2.0 6.0 0.00 0.00 0.00 32 1006.9
20260831154557 87 205 2.0 6.0 0.00 0.00 0.00 32 1007.0
20260831153057 86 259 2.0 9.0 0.00 0.00 0.00 31 1007.0
20260831151607 85 116 3.0 6.0 0.00 0.00 0.00 30 1006.8
20260831150054 84 150 3.0 8.0 0.00 0.00 0.00 28 1006.7
20260831144553 83 164 6.0 11.0 0.00 0.00 0.00 30 1006.5
20260831143053 81 150 3.0 5.0 0.00 0.00 0.00 29 1006.4
20260831141554 80 154 2.0 5.0 0.00 0.00 0.00 30 1006.3
20260831140056 79 146 3.0 6.0 0.00 0.00 0.00 31 1006.0
20260831134553 78 128 3.0 7.0 0.00 0.00 0.00 32 1005.8
20260831133052 78 166 4.0 7.0 0.00 0.00 0.00 32 1005.6
20260831131553 78 155 4.0 8.0 0.00 0.00 0.00 32 1005.4
20260831130059 78 136 3.0 7.0 0.00 0.00 0.00 33 1005.3
20260831124603 78 138 3.0 7.0 0.00 0.00 0.00 33 1005.1
20260831123054 78 153 2.0 5.0 0.00 0.00 0.00 33 1005.1
20260831121554 79 146 1.0 2.0 0.00 0.00 0.00 32 1004.9
20260831120056 79 181 1.0 3.0 0.00 0.00 0.00 31 1004.8
20260831114553 79 119 3.0 5.0 0.00 0.00 0.00 31 1004.8
20260831113052 80 157 2.0 4.0 0.00 0.00 0.00 30 1004.8
20260831111553 81 160 3.0 6.0 0.00 0.00 0.00 29 1004.7
20260831110054 82 184 0.0 2.0 0.00 0.00 0.00 28 1004.7
20260831104602 82 142 1.0 4.0 0.00 0.00 0.00 28 1004.8